DateTimeUTC,F1_A11,F1_S11,BsB_S11,BsG_S11,BsR_S11,BbsB_S11,BbsG_S11,BbsR_S11,BaB_A11,BaG_A11,BaR_A11,Tu_S11,T_S11,Uu_S11,U_S11,P_S11,T1_A11
2021-06-27T23:00:00Z,00000200,20000000,,,,,,,0000.01,0000.17,0000.24,19.0,26.0,06.0,03.9,0671.8,31.2
2021-06-27T23:01:00Z,00000200,20000000,,,,,,,0000.04,0000.16,0000.19,19.0,26.0,06.0,03.9,0671.8,31.2
2021-06-27T23:02:00Z,00000200,20000000,,,,,,,0000.18,0000.27,0000.35,19.0,26.0,06.0,03.9,0671.8,31.2
2021-06-27T23:03:00Z,00000200,60000000,,,,,,,-000.80,-000.54,-000.67,19.0,26.0,06.0,03.9,0671.8,31.2
2021-06-27T23:04:00Z,00000200,40000000,-000.68,-000.10,-000.23,-000.14,0000.30,0000.02,0000.19,-000.10,0000.04,19.2,25.8,05.6,03.7,0672.7,31.2
2021-06-27T23:05:00Z,00000200,00000000,-000.45,-000.12,0000.14,-000.18,0000.15,0000.06,-000.19,-000.23,0000.18,19.2,25.8,05.3,03.5,0672.9,31.2
2021-06-27T23:06:00Z,00000200,00000000,0000.16,0000.00,-000.27,-000.14,0000.25,-000.03,0000.41,0000.24,-000.28,19.2,25.8,05.5,03.7,0672.8,31.2
2021-06-27T23:07:00Z,00000200,00000000,-000.72,0000.18,-000.15,0000.20,-000.02,-000.00,-000.06,0000.05,0000.31,19.2,25.8,05.3,03.6,0672.8,31.2
2021-06-27T23:08:00Z,00000200,00000000,-000.54,0000.26,-000.02,-000.14,0000.18,0000.14,-000.34,-000.10,-000.05,19.2,25.8,05.4,03.7,0672.9,31.2
2021-06-27T23:09:00Z,00000200,00000000,-000.23,-000.15,0000.16,-000.21,0000.17,0000.45,0000.52,0000.15,-000.12,19.2,25.8,05.5,03.7,0672.8,31.2
2021-06-27T23:10:00Z,00000200,00000000,-001.15,0000.07,-000.03,0000.08,0000.15,0000.12,-000.30,-000.28,-000.04,19.2,25.7,05.6,03.8,0672.8,31.2
2021-06-27T23:11:00Z,00000200,00000000,-000.01,0000.17,0000.07,-000.36,0000.19,0000.25,-000.25,-000.19,-000.26,19.2,25.7,05.5,03.7,0672.8,31.2
2021-06-27T23:12:00Z,00000200,00000000,-000.41,-000.03,-000.04,-000.34,0000.38,0000.01,-000.16,0000.23,0000.06,19.1,25.7,05.5,03.7,0672.8,31.2
2021-06-27T23:13:00Z,00000200,00000000,-001.00,0000.23,-000.30,0000.20,0000.21,0000.16,-000.08,-000.45,-000.03,19.1,25.7,05.3,03.6,0672.8,31.2
2021-06-27T23:14:00Z,00000200,00000000,0000.38,-000.22,-000.21,0000.54,0000.03,-000.03,0000.39,0000.61,0000.26,19.1,25.7,05.5,03.7,0672.8,31.2
2021-06-27T23:15:00Z,00000200,00000000,-000.09,-000.17,0000.40,-000.06,0000.07,0000.33,-000.49,-000.14,-000.18,19.1,25.7,05.5,03.7,0672.8,31.2
2021-06-27T23:16:00Z,00000200,00000000,-000.29,0000.25,-000.30,-000.24,0000.31,-000.09,0000.19,-000.66,0000.02,19.1,25.7,05.2,03.5,0672.8,31.2
2021-06-27T23:17:00Z,00000200,00000000,-000.34,-000.02,-000.24,-000.51,0000.03,-000.37,0000.34,0000.63,0000.15,19.0,25.6,05.3,03.6,0672.8,31.2
2021-06-27T23:18:00Z,00000200,00000000,-000.49,-000.05,-000.17,0000.12,-000.28,0000.30,-000.28,-000.18,-000.20,19.0,25.6,05.5,03.7,0672.8,31.2
2021-06-27T23:19:00Z,00000200,00000000,-000.47,-000.09,0000.11,-000.49,0000.11,0000.08,-000.16,-000.02,-000.09,19.0,25.6,05.4,03.6,0672.7,31.2
2021-06-27T23:20:00Z,00000200,00000000,0000.12,0000.31,-000.08,-000.16,0000.30,0000.07,-000.27,-000.41,-000.21,19.0,25.6,05.1,03.4,0672.7,31.2
2021-06-27T23:21:00Z,00000200,00000000,0000.27,0000.06,0000.16,0000.27,0000.29,-000.11,0000.20,-000.10,0000.21,19.0,25.6,04.9,03.3,0672.7,31.2
2021-06-27T23:22:00Z,00000200,00000000,-000.39,0000.14,-000.11,-000.16,-000.02,-000.07,0000.03,0000.41,-000.32,18.9,25.6,05.2,03.5,0672.7,31.2
2021-06-27T23:23:00Z,00000200,00000000,0000.24,0000.06,0000.09,0000.15,0000.12,0000.07,-000.31,-000.21,0000.15,18.9,25.6,05.3,03.6,0672.6,31.2
2021-06-27T23:24:00Z,00000200,00000000,0000.05,0000.10,0000.27,0000.60,-000.08,0000.15,0000.33,0000.44,-000.03,18.9,25.5,05.2,03.5,0672.6,31.2
2021-06-27T23:25:00Z,00000200,00000000,-000.54,-000.19,-000.19,-000.01,-000.15,0000.11,-000.10,-000.27,0000.14,18.9,25.5,05.4,03.6,0672.6,31.2
2021-06-27T23:26:00Z,00000200,00000000,-000.45,-000.30,0000.08,0000.09,0000.03,0000.18,0000.18,0000.22,0000.19,18.9,25.5,05.6,03.7,0672.6,31.2
2021-06-27T23:27:00Z,00000200,00000000,0000.04,-000.04,0000.08,0000.35,0000.15,0000.22,-000.19,-000.14,-000.02,18.9,25.5,05.5,03.7,0672.5,31.2
2021-06-27T23:28:00Z,00000200,00000000,0000.10,-000.10,-000.18,-000.23,0000.21,0000.20,0000.14,0000.08,-000.19,18.8,25.5,05.6,03.7,0672.5,31.2
2021-06-27T23:29:00Z,00000200,00000000,-000.68,0000.21,-000.13,-000.53,-000.05,-000.11,0000.40,0000.36,0000.49,18.8,25.5,05.6,03.8,0672.5,31.2
2021-06-27T23:30:00Z,00000200,00000000,-000.19,0000.24,0000.17,0000.58,0000.06,-000.10,-000.17,-000.28,-000.51,18.8,25.4,05.7,03.8,0672.5,31.2
2021-06-27T23:31:00Z,00000200,00000000,-000.08,0000.13,-000.09,-000.31,0000.12,0000.04,0000.07,0000.27,0000.28,18.8,25.5,05.7,03.8,0672.5,31.2
2021-06-27T23:32:00Z,00000200,00000000,0000.05,0000.15,0000.17,0000.28,0000.24,0000.25,0000.37,-000.06,0000.38,18.8,25.4,05.8,03.9,0672.5,31.2
2021-06-27T23:33:00Z,00000200,00000000,-000.26,-000.03,-000.04,-000.42,0000.10,0000.06,0000.14,0000.03,0000.24,18.9,25.5,05.8,03.9,0672.5,31.2
2021-06-27T23:34:00Z,00000200,00000000,-000.67,0000.31,-000.00,-000.10,0000.01,0000.20,0000.01,0000.59,-000.16,19.0,25.5,05.7,03.9,0672.5,31.2
2021-06-27T23:35:00Z,00000200,00000000,-000.33,-000.01,-000.25,0000.02,0000.13,-000.28,-000.01,-000.27,-000.04,19.1,25.6,05.7,03.8,0672.5,31.2
2021-06-27T23:36:00Z,00000200,00000000,-000.77,0000.19,-000.44,0000.33,0000.32,-000.35,-000.01,0000.34,0000.25,19.2,25.6,05.6,03.8,0672.5,31.2
2021-06-27T23:37:00Z,00000200,00000000,-000.47,0000.09,0000.05,0000.17,0000.12,0000.46,0000.13,0000.14,-000.23,19.3,25.7,05.7,03.9,0672.5,31.2
2021-06-27T23:38:00Z,00000200,00000000,-000.31,-000.03,-000.03,0000.32,-000.06,0000.20,-000.36,-000.47,-000.08,19.3,25.7,05.6,03.8,0672.5,31.2
2021-06-27T23:39:00Z,00000200,00000000,-000.52,-000.14,-000.23,-000.42,0000.20,0000.01,-000.09,-000.52,0000.07,19.3,25.7,05.4,03.7,0672.6,31.2
2021-06-27T23:40:00Z,00000200,00000000,-000.03,0000.16,-000.17,-000.88,0000.22,-000.23,0000.00,0000.39,-000.28,19.3,25.7,05.4,03.7,0672.6,31.2
2021-06-27T23:41:00Z,00000200,00000000,-000.23,-000.03,-000.21,-000.33,0000.08,0000.14,-000.11,-000.23,0000.07,19.3,25.7,05.5,03.7,0672.6,31.2
2021-06-27T23:42:00Z,00000200,00000000,-000.46,-000.07,-000.21,-000.15,0000.39,0000.33,0000.14,0000.07,-000.30,19.2,25.7,05.5,03.7,0672.5,31.2
2021-06-27T23:43:00Z,00000200,00000000,-000.35,-000.04,-000.04,0000.23,0000.15,0000.17,-000.43,-000.34,-000.03,19.2,25.6,05.4,03.7,0672.5,31.2
2021-06-27T23:44:00Z,00000200,00000000,-000.09,-000.27,-000.25,0000.41,-000.17,0000.08,-000.01,-000.01,-000.27,19.2,25.6,05.3,03.6,0672.5,31.2
2021-06-27T23:45:00Z,00000200,00000000,-000.03,0000.10,-000.44,-000.21,0000.22,-000.06,-000.08,-000.16,0000.37,19.1,25.6,05.3,03.6,0672.5,31.2
2021-06-27T23:46:00Z,00000200,00000000,-000.33,-000.03,-000.13,-000.30,0000.14,-000.13,0000.44,0000.38,-000.04,19.1,25.6,05.3,03.6,0672.5,31.2
2021-06-27T23:47:00Z,00000200,00000000,-000.23,-000.12,0000.20,-000.41,-000.05,0000.17,-000.13,0000.01,0000.40,19.2,25.6,05.3,03.6,0672.5,31.2
2021-06-27T23:48:00Z,00000200,00000000,-000.13,0000.13,-000.25,-000.28,-000.04,-000.26,-000.00,0000.36,-000.07,19.2,25.6,05.5,03.7,0672.5,31.2
2021-06-27T23:49:00Z,00000200,00000000,-000.23,0000.15,-000.06,-000.02,0000.16,0000.09,-000.03,-000.12,0000.10,19.3,25.7,05.3,03.6,0672.5,31.2
2021-06-27T23:50:00Z,00000200,00000000,-000.21,-000.21,-000.27,-000.29,0000.11,0000.09,0000.26,-000.20,0000.02,19.4,25.7,05.1,03.5,0672.5,31.2
2021-06-27T23:51:00Z,00000200,00000000,-000.30,-000.09,-000.04,-000.15,0000.18,-000.20,-000.07,0000.13,-000.05,19.4,25.8,05.1,03.5,0672.5,31.2
2021-06-27T23:52:00Z,00000200,00000000,-000.58,0000.26,-000.17,-000.18,0000.11,0000.10,0000.09,-000.06,-000.23,19.4,25.8,05.2,03.6,0672.5,31.2
2021-06-27T23:53:00Z,00000200,00000000,-000.51,0000.26,0000.09,-000.70,0000.25,0000.19,-000.47,0000.08,0000.15,19.4,25.8,05.2,03.5,0672.5,31.2
2021-06-27T23:54:00Z,00000200,00000000,-000.36,0000.00,0000.04,0000.31,0000.20,0000.20,0000.12,-000.00,-000.19,19.4,25.8,05.1,03.5,0672.5,31.2
2021-06-27T23:55:00Z,00000200,00000000,-000.01,-000.18,-000.12,-000.38,-000.12,0000.07,0000.28,0000.00,0000.30,19.4,25.7,05.3,03.6,0672.5,31.2
2021-06-27T23:56:00Z,00000200,00000000,-000.23,0000.10,-000.08,-000.49,0000.05,0000.03,-000.26,-000.41,-000.50,19.3,25.7,05.3,03.6,0672.5,31.2
2021-06-27T23:57:00Z,00000200,40000000,,,,,,,0000.32,0000.12,0000.42,19.3,25.8,05.5,03.7,0672.4,31.2
2021-06-27T23:58:00Z,00000200,60000000,,,,,,,-000.50,0000.13,-000.28,19.0,25.8,05.3,03.5,0671.5,31.2
2021-06-27T23:59:00Z,00000200,20000000,,,,,,,-000.09,-000.20,-000.30,19.0,25.9,05.0,03.3,0671.4,31.2
